Location: Bellerive
(46.9237°N, 7.0223°E)
Time: 09:26:25
(UTC+00:00)

USA 234 - Pass Details

Date: 09 April 2020
Orbit: 1102 x 1106 km, 123.0° (Epoch: 14 May)

Event Time Altitude Azimuth Distance (km) Brightness Sun altitude
Rises 21:34:31 0° 53° (NE) 3,926 6.2 -29.1°
Reaches altitude 10° 21:37:00 10° 52° (NE) 2,966 5.5 -29.3°
Maximum altitude 21:43:34 81° 327° (NNW) 1,120 3.2 -29.9°
Drops below altitude 10° 21:50:06 10° 241° (WSW) 2,958 5.5 -30.5°
Sets 21:52:35 0° 240° (WSW) 3,914 6.2 -30.7°
